Weather History for Jasper, AB

Change the Weather History Date:

Tuesday, May 8, 2012

  Actual Average Record
Temperature  
Mean Temperature 51 °F -  
Max Temperature 69 °F - - ()
Min Temperature 33 °F - - ()
Degree Days  
Heating Degree Days 14    
Growing Degree Days 1 (Base 50)    
Moisture  
Dew Point 27 °F    
Average Humidity 45    
Maximum Humidity 91    
Minimum Humidity 10    
Precipitation  
Precipitation 0.00 in - - ()
Sea Level Pressure  
Sea Level Pressure 29.92 in    
Wind  
Wind Speed 5 mph ()    
Max Wind Speed 14 mph    
Max Gust Speed 25 mph    
T = Trace of Precipitation, MM = Missing Value Source: Averaged Metar Reports

Daily Weather History Graph

Daily Weather History Graph

Search for Another Location

Airport:

Trip Planner

Search our weather history database for the weather conditions in past years. The results will help you decide how hot, cold, wet, or windy it might be!

Date:

Astronomy

May. 08, 2012 Rise Set
Actual Time 6:04 AM MDT 9:33 PM MDT
Civil Twilight 5:23 AM MDT 10:15 PM MDT
Nautical Twilight 4:26 AM MDT 11:12 PM MDT
Astronomical Twilight 3:03 AM MDT 12:38 AM MDT
Moon 12:02 AM MDT (5/8) 8:04 AM MDT (5/8)
Length of Visible Light 16h 52m
Length of Day
15h 28m
Waning Gibbous, 90% of the Moon is Illuminated
May 8
Waning Gibbous
May 12
Last Quarter
May 20
New
May 28
First Quarter
Jun 4
Full

Hourly Weather History & Observations

Time (MDT) Temp. Windchill Dew Point Humidity Pressure Visibility Wind Dir Wind Speed Gust Speed Precip Events Conditions
12:00 AM 43 °F - 32 °F 54% 30.13 in - SE 3.5 mph - -  
12:00 AM 42.8 °F 41.1 °F 31.8 °F 65% 30.13 in - SE 3.5 mph - N/A   Unknown
1:00 AM 42.4 °F 40.7 °F 31.5 °F 65% 30.12 in - South 3.5 mph - N/A   Unknown
2:00 AM 37.2 °F 34.7 °F 30.4 °F 76% 30.12 in - South 3.5 mph - N/A   Unknown
3:00 AM 35.4 °F 32.6 °F 29.8 °F 80% 30.11 in - South 3.5 mph - N/A   Unknown
4:00 AM 34.7 °F 31.8 °F 30.4 °F 84% 30.10 in - SSW 3.5 mph - N/A   Unknown
5:00 AM 34.9 °F 32.0 °F 31.1 °F 86% 30.08 in - South 3.5 mph - N/A   Unknown
6:00 AM 33 °F - 30 °F 84% 30.06 in - SSW 2.3 mph - -  
6:00 AM 33.3 °F - 30.0 °F 88% 30.06 in - SSW 2.3 mph - N/A   Unknown
7:00 AM 33.8 °F 30.8 °F 31.5 °F 91% 30.02 in - South 3.5 mph - N/A   Unknown
8:00 AM 37.8 °F 35.3 °F 33.6 °F 85% 29.99 in - SW 3.5 mph - N/A   Unknown
9:00 AM 48.0 °F - 31.3 °F 52% 29.95 in - SSE 2.3 mph - N/A   Unknown
10:00 AM 56.5 °F - 31.3 °F 38% 29.90 in - SSE 3.5 mph - N/A   Unknown
11:00 AM 63.7 °F - 27.0 °F 25% 29.86 in - SSW 8.1 mph - N/A   Unknown
12:00 PM 66 °F - 26 °F 12% 29.83 in - South 11.5 mph - -  
12:00 PM 66.4 °F - 26.2 °F 22% 29.83 in - South 11.5 mph 21.9 mph N/A   Unknown
1:00 PM 65.3 °F - 22.8 °F 20% 29.83 in - SSE 13.8 mph 25.3 mph N/A   Unknown
2:00 PM 66.7 °F - 23.5 °F 19% 29.82 in - South 11.5 mph 19.6 mph N/A   Unknown
3:00 PM 66.9 °F - 23.2 °F 19% 29.81 in - South 11.5 mph 24.2 mph N/A   Unknown
4:00 PM 66.6 °F - 22.6 °F 19% 29.81 in - South 11.5 mph 21.9 mph N/A   Unknown
5:00 PM 65.8 °F - 21.2 °F 18% 29.81 in - SSW 9.2 mph - N/A   Unknown
6:00 PM 65 °F - 23 °F 10% 29.81 in - South 8.1 mph - -  
6:00 PM 64.6 °F - 22.8 °F 20% 29.81 in - South 8.1 mph - N/A   Unknown
7:00 PM 64.2 °F - 24.1 °F 22% 29.81 in - South 9.2 mph 19.6 mph N/A   Unknown
8:00 PM 60.8 °F - 23.0 °F 23% 29.79 in - South 6.9 mph - N/A   Unknown
9:00 PM 58.1 °F - 24.4 °F 27% 29.76 in - South 6.9 mph - N/A   Unknown
10:00 PM 55.8 °F - 25.2 °F 31% 29.74 in - South 4.6 mph - N/A   Unknown
11:00 PM 52.2 °F - 26.2 °F 37% 29.73 in - South 3.5 mph - N/A   Unknown